User: anonymous   Login
Location: Newark
(36.0797°N, 3.9744°E)
Time: 05:03:27
(UTC+00:00)
Language:

Tiros 1 - Orbit

View from above orbital plane
View from above orbital plane
View from above satellite
View from above satellite

Ground track
Ground track

The orbit data is extracted from the following two-line orbital elements,

1    29U 60002B   19341.79027697 -.00000135  00000-0  11016-4 0  9997
2    29  48.3784 137.8366 0023805 128.9563 231.3475 14.74331879190230
Epoch (UTC): 07 December 2019 18:57:59
Eccentricity: 0.0023805
inclination: 48.3784°
perigee height: 630 km
apogee height: 664 km
right ascension of ascending node: 137.8366°
argument of perigee: 128.9563°
revolutions per day: 14.74331879
mean anomaly at epoch: 231.3475°
orbit number at epoch: 19023

The dashed part of the orbit path shows where the satellite is in the earth's shadow,  

DLR